�N����,����,�~����,�C��,���x,�C��,����,���ϕ���,�ő�u�ԕ���,�ő厞����,���˗�,�I�_���x,�n�����x,�ő啗���N��,DTYPE
"16/07/16","00:10",0.0,20.7,90.7,999.1,314.7,1.0,1.6,330.6,0.00,19.2,24.7,"00:00:16",1
"16/07/16","00:20",0.0,20.7,91.0,999.1,330.6,1.2,2.1,335.6,0.00,19.2,24.3,"00:10:56",1
"16/07/16","00:30",0.0,20.8,90.9,999.3,321.7,1.2,2.2,327.0,0.00,19.3,24.3,"00:22:16",1
"16/07/16","00:40",0.0,20.9,90.5,999.3,315.1,1.1,2.1,339.4,0.00,19.3,24.5,"00:30:56",1
"16/07/16","00:50",0.0,20.9,90.1,999.3,304.8,1.1,1.6,322.8,0.00,19.3,24.3,"00:48:32",1
"16/07/16","01:00",0.0,21.0,89.8,999.3,308.1,1.0,1.6,311.0,0.00,19.3,24.2,"00:52:16",1
"16/07/16","01:10",0.0,21.0,89.8,999.1,305.5,1.0,1.4,322.6,0.00,19.3,24.4,"01:02:00",1
"16/07/16","01:20",0.0,21.1,89.4,999.3,314.0,1.1,1.9,350.8,0.00,19.3,24.5,"01:11:12",1
"16/07/16","01:30",0.0,21.2,89.1,999.1,314.8,1.1,1.4,304.4,0.00,19.4,24.3,"01:20:48",1
"16/07/16","01:40",0.0,21.1,88.8,999.3,326.6,1.2,3.5,347.9,0.00,19.2,24.2,"01:38:56",1
"16/07/16","01:50",0.0,21.2,88.7,999.3,335.6,1.3,2.2,325.7,0.00,19.3,24.1,"01:42:56",1
"16/07/16","02:00",0.0,21.2,88.9,999.3,330.5,1.3,2.5,342.0,0.00,19.3,24.2,"01:57:36",1
"16/07/16","02:10",0.0,21.0,89.1,999.6,301.1,1.0,2.8,336.6,0.00,19.2,24.1,"02:01:04",1
"16/07/16","02:20",0.0,20.9,89.4,999.3,299.0,1.0,1.6,316.4,0.00,19.1,24.3,"02:10:02",1
"16/07/16","02:30",0.0,20.8,89.6,999.3,309.4,1.0,1.6,327.1,0.00,19.1,24.1,"02:20:08",1
"16/07/16","02:40",0.0,20.7,90.0,999.3,328.7,1.3,2.2,339.8,0.00,19.0,24.1,"02:34:16",1
"16/07/16","02:50",0.0,20.5,90.4,999.8,315.2,1.2,1.8,330.3,0.00,18.9,24.0,"02:40:24",1
"16/07/16","03:00",0.0,20.5,90.6,999.3,310.5,1.0,2.0,335.3,0.00,18.9,24.2,"02:53:20",1
"16/07/16","03:10",0.0,20.4,90.8,999.1,311.6,1.0,1.4,340.7,0.00,18.9,24.0,"03:05:52",1
"16/07/16","03:20",0.0,20.3,91.0,999.3,307.7,0.8,1.7,331.4,0.00,18.8,24.0,"03:11:36",1
"16/07/16","03:30",0.0,20.2,91.4,999.3,292.5,0.7,1.0,298.2,0.00,18.8,24.0,"03:22:00",1
"16/07/16","03:40",0.0,20.2,91.8,999.8,311.0,1.0,1.3,310.1,0.00,18.9,23.9,"03:35:44",1
"16/07/16","03:50",0.0,20.2,91.9,999.6,318.7,0.8,1.3,341.3,0.00,18.9,23.8,"03:49:12",1
"16/07/16","04:00",0.0,20.4,91.6,999.3,297.4,0.8,1.7,338.1,0.00,19.0,23.8,"03:50:40",1
"16/07/16","04:10",0.0,20.4,91.4,999.3,274.6,0.8,1.3,246.7,0.00,19.0,24.0,"04:06:08",1
"16/07/16","04:20",0.0,20.4,91.1,999.6,291.4,0.7,1.1,305.4,0.00,18.9,23.8,"04:18:16",1
"16/07/16","04:30",0.0,20.6,91.0,999.6,311.3,1.2,1.8,323.9,0.00,19.1,23.8,"04:25:28",1
"16/07/16","04:40",0.0,20.6,90.4,1000.0,312.4,1.1,1.7,338.7,0.00,19.0,23.8,"04:30:40",1
"16/07/16","04:50",0.0,20.7,90.1,999.8,294.3,0.8,1.3,318.5,0.00,19.1,23.9,"04:41:28",1
"16/07/16","05:00",0.0,20.8,90.3,999.6,306.7,0.7,1.2,322.4,0.00,19.2,23.7,"04:52:16",1
"16/07/16","05:10",0.0,20.8,90.1,999.8,266.7,1.0,1.4,245.6,0.00,19.2,23.8,"05:05:04",1
"16/07/16","05:20",0.0,20.8,89.9,999.8,303.3,1.0,1.4,341.1,0.00,19.1,23.8,"05:16:40",1
"16/07/16","05:30",0.0,20.7,90.0,999.8,295.8,1.0,1.3,319.5,0.00,19.0,23.8,"05:26:40",1
"16/07/16","05:40",0.0,20.7,91.2,1000.3,310.7,1.1,2.0,325.7,0.00,19.3,23.7,"05:35:44",1
"16/07/16","05:50",0.0,20.8,91.6,1000.0,285.4,0.8,1.1,306.4,0.00,19.4,23.7,"05:48:00",1
"16/07/16","06:00",0.0,20.8,91.3,1000.0,290.8,0.7,1.1,323.6,0.00,19.4,23.8,"05:51:52",1
"16/07/16","06:10",0.0,20.8,91.4,1000.0,292.9,0.8,1.1,311.2,0.00,19.4,23.9,"06:06:40",1
"16/07/16","06:20",0.0,21.0,91.0,999.8,296.9,0.7,1.1,315.2,0.00,19.5,23.6,"06:16:16",1
"16/07/16","06:30",0.0,21.2,90.6,1000.8,296.2,0.7,1.1,292.3,0.01,19.6,23.6,"06:23:24",1
"16/07/16","06:40",0.0,21.5,90.2,1000.0,289.9,0.6,0.8,314.8,0.01,19.9,23.8,"06:31:04",1
"16/07/16","06:50",0.0,21.7,90.3,1000.5,329.6,1.0,1.7,337.4,0.01,20.1,23.8,"06:48:22",1
"16/07/16","07:00",0.0,21.9,90.9,1000.8,316.1,0.6,1.4,337.8,0.01,20.4,23.8,"06:50:24",1
"16/07/16","07:10",0.0,22.1,90.7,1000.5,271.3,0.5,0.9,255.2,0.05,20.5,23.9,"07:07:30",1
"16/07/16","07:20",0.0,22.4,88.9,1000.8,292.3,0.7,1.1,292.6,0.06,20.5,23.8,"07:13:52",1
"16/07/16","07:30",0.0,22.7,88.2,1000.5,286.2,0.6,1.0,249.4,0.03,20.7,24.0,"07:27:12",1
"16/07/16","07:40",0.0,23.0,86.4,1000.8,298.9,0.7,1.4,320.4,0.06,20.6,23.9,"07:34:00",1
"16/07/16","07:50",0.0,23.5,84.3,1000.5,287.8,0.5,0.8,284.1,0.11,20.7,24.2,"07:40:08",1
"16/07/16","08:00",0.0,23.8,81.3,1000.5,255.2,0.6,1.3,222.2,0.15,20.4,24.1,"07:57:36",1
"16/07/16","08:10",0.0,24.5,78.7,1000.5,310.6,0.3,1.4,207.7,0.18,20.6,24.3,"08:00:16",1
"16/07/16","08:20",0.0,24.9,78.7,1000.5,245.3,0.3,1.6,340.0,0.19,21.0,24.4,"08:10:32",1
"16/07/16","08:30",0.0,25.9,77.3,1000.5,159.3,0.5,1.3,186.0,0.27,21.7,24.3,"08:20:32",1
"16/07/16","08:40",0.0,26.3,71.5,1000.0,135.0,0.6,1.7,206.2,0.35,20.8,24.5,"08:38:40",1
"16/07/16","08:50",0.0,26.9,71.6,999.8,170.3,0.7,1.6,176.1,0.37,21.4,24.6,"08:47:28",1
"16/07/16","09:00",0.0,27.2,68.5,1000.0,171.5,0.7,2.8,198.1,0.40,20.9,25.0,"08:52:40",1
"16/07/16","09:10",0.0,27.9,67.6,1000.3,119.8,0.7,1.8,149.3,0.43,21.4,25.4,"09:02:24",1
"16/07/16","09:20",0.0,26.9,69.1,1000.8,182.9,1.6,4.4,200.4,0.35,20.8,25.4,"09:16:40",1
"16/07/16","09:30",0.0,27.2,68.7,1000.5,145.0,1.0,2.4,123.1,0.31,21.0,25.6,"09:21:44",1
"16/07/16","09:40",0.0,27.4,66.9,1000.5,165.5,1.5,2.9,170.9,0.41,20.7,26.0,"09:37:20",1
"16/07/16","09:50",0.0,27.1,69.7,1000.0,154.2,1.2,3.3,210.5,0.22,21.1,26.1,"09:46:00",1
"16/07/16","10:00",0.0,27.0,69.9,999.8,197.0,1.3,2.9,218.6,0.22,21.1,26.3,"09:50:40",1
"16/07/16","10:10",0.0,27.5,68.5,999.6,164.5,1.0,2.6,162.2,0.27,21.2,26.2,"10:00:02",1
"16/07/16","10:20",0.0,27.3,69.0,1000.0,152.2,1.2,2.7,127.4,0.25,21.2,26.2,"10:13:52",1
"16/07/16","10:30",0.0,27.8,66.0,999.6,187.1,1.1,2.5,201.7,0.30,20.9,26.4,"10:20:02",1
"16/07/16","10:40",0.0,27.2,66.3,999.8,173.7,1.6,3.5,222.5,0.22,20.4,26.6,"10:30:08",1
"16/07/16","10:50",0.0,29.0,63.6,999.8,163.5,1.1,2.8,178.9,0.55,21.4,26.7,"10:42:56",1
"16/07/16","11:00",0.0,29.6,59.2,1000.3,140.6,1.7,3.7,200.6,0.63,20.8,26.7,"10:59:04",1
"16/07/16","11:10",0.0,29.3,64.2,1000.8,150.8,1.5,2.6,170.9,0.47,21.9,27.2,"11:00:32",1
"16/07/16","11:20",0.0,28.3,63.1,1000.3,181.1,1.5,2.9,227.3,0.24,20.6,27.1,"11:18:48",1
"16/07/16","11:30",0.0,28.3,64.5,1000.0,158.0,1.3,4.4,207.0,0.23,21.0,27.2,"11:23:36",1
"16/07/16","11:40",0.0,28.9,63.0,1000.0,181.0,0.8,2.9,217.0,0.31,21.2,27.4,"11:34:56",1
"16/07/16","11:50",0.0,28.6,64.1,1000.3,187.7,1.3,3.4,178.6,0.24,21.2,27.7,"11:47:12",1
"16/07/16","12:00",0.0,29.5,60.8,999.8,172.2,1.3,3.3,187.2,0.47,21.2,27.8,"11:55:04",1
"16/07/16","12:10",0.0,29.4,63.8,1000.0,133.0,1.3,2.7,166.4,0.44,21.9,27.8,"12:08:40",1
"16/07/16","12:20",0.0,29.1,63.1,999.8,186.5,1.1,2.8,194.7,0.20,21.4,28.0,"12:14:16",1
"16/07/16","12:30",0.0,30.7,59.0,1000.0,194.0,1.3,4.1,229.1,0.62,21.8,28.2,"12:28:48",1
"16/07/16","12:40",0.0,30.5,59.7,1000.3,192.6,1.8,5.8,224.7,0.48,21.8,28.4,"12:38:48",1
"16/07/16","12:50",0.0,31.0,55.3,1000.8,228.8,1.6,4.4,215.2,0.63,21.0,28.4,"12:47:44",1
"16/07/16","13:00",0.0,30.3,55.4,1000.5,227.2,1.2,4.9,224.0,0.52,20.4,28.5,"12:55:04",1
"16/07/16","13:10",0.0,30.7,58.8,1000.3,200.1,3.1,6.5,228.1,0.38,21.8,28.5,"13:04:32",1
"16/07/16","13:20",0.0,30.5,56.7,1000.3,217.3,2.0,5.8,230.4,0.41,21.0,28.5,"13:17:12",1
"16/07/16","13:30",0.0,31.8,54.0,1000.8,215.3,0.8,2.9,227.4,0.55,21.4,28.4,"13:27:04",1
"16/07/16","13:40",0.0,31.5,52.2,1000.5,210.9,1.6,7.1,207.4,0.50,20.6,28.7,"13:33:44",1
"16/07/16","13:50",0.0,31.0,55.3,1000.8,207.1,1.1,3.5,182.9,0.33,21.0,28.7,"13:48:16",1
"16/07/16","14:00",0.0,30.9,54.1,1000.3,220.7,1.7,6.2,166.8,0.34,20.6,28.6,"13:50:02",1
"16/07/16","14:10",0.0,31.9,55.0,999.8,185.8,2.3,4.9,219.7,0.52,21.8,28.9,"14:00:08",1
"16/07/16","14:20",0.0,31.7,51.9,1000.5,201.8,2.1,6.6,219.9,0.57,20.6,28.9,"14:15:12",1
"16/07/16","14:30",0.0,31.3,52.9,1000.3,203.0,2.1,4.5,219.4,0.44,20.6,29.0,"14:24:56",1
"16/07/16","14:40",0.0,30.2,58.4,1000.0,205.5,1.6,4.2,158.9,0.21,21.2,29.1,"14:30:40",1
"16/07/16","14:50",0.0,30.4,52.7,999.8,255.2,0.6,3.5,227.2,0.25,19.7,28.9,"14:49:52",1
"16/07/16","15:00",0.0,30.7,55.1,999.8,224.6,1.2,4.0,211.2,0.29,20.7,29.1,"14:53:28",1
"16/07/16","15:10",0.0,30.5,57.7,999.8,229.1,1.1,3.2,229.6,0.23,21.3,29.1,"15:02:32",1
"16/07/16","15:20",0.0,30.7,57.8,999.8,194.2,0.3,2.4,198.7,0.23,21.5,29.1,"15:14:24",1
"16/07/16","15:30",0.0,29.9,57.9,1000.0,185.5,1.1,3.2,223.8,0.13,20.8,29.0,"15:23:04",1
"16/07/16","15:40",0.0,29.8,58.3,999.8,225.3,1.0,3.1,218.8,0.09,20.8,28.9,"15:36:56",1
"16/07/16","15:50",0.0,29.6,58.3,999.3,222.7,1.2,2.7,225.9,0.09,20.6,28.8,"15:42:24",1
"16/07/16","16:00",0.0,30.0,59.5,999.1,195.5,1.2,2.7,219.2,0.14,21.3,28.8,"15:58:56",1
"16/07/16","16:10",0.0,29.8,60.8,999.6,212.7,0.8,2.6,222.9,0.10,21.5,28.8,"16:01:12",1
"16/07/16","16:20",0.0,29.9,59.9,999.1,300.6,0.3,1.0,199.2,0.08,21.3,28.9,"16:13:20",1
"16/07/16","16:30",0.0,29.5,59.9,999.1,208.1,1.3,4.0,224.3,0.04,20.9,28.8,"16:29:12",1
"16/07/16","16:40",0.0,29.2,61.5,998.6,240.0,1.1,2.8,228.7,0.03,21.1,28.8,"16:30:32",1
"16/07/16","16:50",0.0,29.1,60.9,998.6,242.8,1.1,2.8,222.6,0.03,20.8,28.7,"16:45:12",1
"16/07/16","17:00",0.0,29.0,62.0,998.4,221.1,0.8,2.2,224.9,0.04,21.0,28.6,"16:54:24",1
"16/07/16","17:10",0.0,28.9,61.2,998.6,222.2,0.7,2.1,224.1,0.03,20.7,28.6,"17:06:40",1
"16/07/16","17:20",0.0,28.7,61.6,998.2,231.8,0.7,2.9,228.6,0.00,20.6,28.3,"17:16:32",1
"16/07/16","17:30",0.0,28.6,62.3,998.4,228.4,1.0,2.7,228.2,0.00,20.7,28.5,"17:24:40",1
"16/07/16","17:40",0.0,28.4,66.6,998.6,340.8,0.3,1.0,301.0,0.00,21.6,28.2,"17:32:40",1
"16/07/16","17:50",0.0,28.1,67.1,999.1,39.0,0.2,0.9,136.1,0.00,21.5,28.1,"17:44:40",1
"16/07/16","18:00",0.0,27.8,69.5,998.9,320.0,0.7,1.3,334.8,0.00,21.7,27.9,"17:53:12",1
"16/07/16","18:10",0.0,27.5,72.4,999.1,348.8,1.0,1.8,8.7,0.00,22.1,28.0,"18:03:28",1
"16/07/16","18:20",0.0,27.2,73.7,999.3,341.9,0.5,1.0,329.4,0.00,22.1,28.0,"18:17:12",1
"16/07/16","18:30",0.0,27.0,72.6,999.3,339.5,0.7,1.3,325.5,0.00,21.7,27.7,"18:26:00",1
"16/07/16","18:40",0.0,26.9,74.8,999.8,330.3,0.7,1.1,343.0,0.00,22.1,27.7,"18:37:44",1
"16/07/16","18:50",0.0,26.7,75.0,999.6,308.5,0.5,1.1,327.1,0.00,21.9,27.6,"18:42:32",1
"16/07/16","19:00",0.0,26.6,75.4,1000.0,305.3,0.3,0.8,303.4,0.00,21.9,27.7,"18:50:56",1
"16/07/16","19:10",0.0,26.6,75.7,999.8,305.6,0.3,1.3,322.9,0.00,22.0,27.3,"19:08:32",1
"16/07/16","19:20",0.0,26.5,76.2,999.8,315.4,0.5,1.2,326.2,0.00,22.0,27.5,"19:15:52",1
"16/07/16","19:30",0.0,26.4,76.8,1000.0,294.6,0.2,0.4,248.1,0.00,22.0,27.2,"19:20:08",1
"16/07/16","19:40",0.0,26.2,77.5,1000.0,303.7,0.6,1.1,339.7,0.00,22.0,27.2,"19:30:02",1
"16/07/16","19:50",0.0,26.0,78.4,1000.5,309.6,0.5,1.0,319.5,0.00,22.0,27.2,"19:40:08",1
"16/07/16","20:00",0.0,25.9,78.1,1000.5,299.9,0.5,1.0,341.7,0.00,21.8,27.3,"19:57:52",1
"16/07/16","20:10",0.0,25.8,78.2,1000.5,310.1,0.3,0.8,329.6,0.00,21.8,27.2,"20:08:24",1
"16/07/16","20:20",0.0,25.7,78.6,1000.5,288.2,0.3,0.9,353.8,0.00,21.7,27.1,"20:13:12",1
"16/07/16","20:30",0.0,25.6,79.0,1001.0,284.7,0.3,0.5,247.3,0.00,21.7,27.0,"20:20:08",1
"16/07/16","20:40",0.0,25.6,79.2,1001.0,291.5,0.3,0.5,276.2,0.00,21.8,26.9,"20:31:44",1
"16/07/16","20:50",0.0,25.5,78.9,1001.2,298.0,0.3,0.5,300.1,0.00,21.6,27.0,"20:43:12",1
"16/07/16","21:00",0.0,25.5,80.7,1001.2,306.6,0.5,1.0,347.7,0.00,22.0,26.9,"20:57:36",1
"16/07/16","21:10",0.0,25.4,82.5,1001.0,305.1,0.6,1.0,332.5,0.00,22.2,26.8,"21:07:44",1
"16/07/16","21:20",0.0,25.2,81.3,1001.2,311.7,0.5,1.0,342.7,0.00,21.8,26.8,"21:14:16",1
"16/07/16","21:30",0.0,25.1,81.3,1001.0,305.9,0.5,0.9,339.8,0.00,21.7,26.7,"21:21:28",1
"16/07/16","21:40",0.0,25.1,81.2,1001.2,297.7,0.3,0.6,321.6,0.00,21.7,26.7,"21:30:48",1
"16/07/16","21:50",0.0,25.1,81.0,1001.0,326.9,0.6,1.1,348.5,0.00,21.6,26.7,"21:45:20",1
"16/07/16","22:00",0.0,25.2,82.4,1001.5,321.6,0.7,1.7,330.9,0.00,22.0,26.8,"21:55:12",1
"16/07/16","22:10",0.0,25.1,83.1,1001.5,294.5,0.3,0.6,324.5,0.00,22.1,26.5,"22:08:16",1
"16/07/16","22:20",0.0,25.0,83.1,1001.2,302.0,0.5,0.9,311.0,0.00,22.0,26.2,"22:17:36",1
"16/07/16","22:30",0.0,24.9,82.3,1001.2,312.0,0.3,1.2,332.9,0.00,21.7,26.5,"22:28:48",1
"16/07/16","22:40",0.0,25.0,82.5,1001.0,319.5,0.6,1.0,331.7,0.00,21.9,26.5,"22:35:44",1
"16/07/16","22:50",0.0,24.9,82.3,1001.5,296.4,0.5,0.5,276.4,0.00,21.7,26.3,"22:40:08",1
"16/07/16","23:00",0.0,24.9,82.0,1001.2,316.2,0.3,0.9,6.6,0.00,21.7,26.4,"22:53:52",1
"16/07/16","23:10",0.0,24.9,83.3,1001.0,322.6,0.6,1.0,327.3,0.00,21.9,26.3,"23:07:12",1
"16/07/16","23:20",0.0,24.9,83.2,1001.0,321.2,0.6,1.1,320.4,0.00,21.9,26.2,"23:10:08",1
"16/07/16","23:30",0.0,24.7,83.3,1000.8,297.6,0.6,0.8,298.9,0.00,21.7,26.2,"23:20:08",1
"16/07/16","23:40",0.0,24.7,83.7,1001.2,285.1,0.5,0.6,308.6,0.00,21.8,26.2,"23:30:40",1
"16/07/16","23:50",0.0,24.5,83.5,1001.0,308.4,0.6,0.9,327.9,0.00,21.6,26.3,"23:48:24",1
"16/07/16","24:00",0.0,24.3,84.3,1000.5,295.9,0.5,0.6,304.9,0.00,21.5,26.1,"23:50:08",1
